COSMOS 2500 (755) (40001 NORAD) Tracking and Keplerian Element Data

This shows tracking and keplerian element data for the satellite.

Feedback or suggestion? Click here.




ElementValue
Catalog40001
NameCOSMOS 2500 (755)
Epoch Orbit8283
Epoch Day34.69146344
Epoch Year2025
RAAN330.6162
Inclination65.508
Eccentricity0.0005792
Argument of Perigee220.2838
Mean Anonmoly139.6918
Mean Motion2.13105855
Decay Rate-6.3E-07
L11 40001U 14032A 25034.69146344 -.00000063 00000+0 00000+0 0 9994
L22 40001 65.5080 330.6162 0005792 220.2838 139.6918 2.13105855 82838



Live tracking and technical data element details for COSMOS 2500 (755) (NORAD 40001). COSMOS 2500 (755) can be tracked NOW for your location showing map with azimuth and elevation plus other details from your city location.







IsCatalogInMostPopularTable: catalog: 40001, numindb: 538
Update: records affected: 1



GetName: 40001 COSMOS 2500 (755)

Hit Count: updated at: Thu, 15 May 2025 19:57:08 GMT